Terug naar catalogus

ARIANE 44P R/B

ActiefHEO
NORAD 25461·ROCKET BODY·🇫🇷 France

Gelanceerd Aug 25, 1998 vanaf Guiana Space Centre

Loading…

Volgende Passages (komende 24 uur)

TLE

VersSource: Space-Track

Epoch: Sep 14, 2026, 08:31 UTC

1 25461U 98049B   26257.35488339  .00008134  00000-0  13707-2 0  9999
2 25461   4.0543 237.4998 5865612 258.6920  33.5426  4.25101383308318

Volg ARIANE 44P R/B in realtime met AllMySat

Download on the App Store